Location: München
(48.1351°N, 11.5820°E)
Time: 17:29:15
(UTC+01:00)

ISS - Pass Details

Date: 28 January 2020
Orbit: 415 x 422 km, 51.6° (Epoch: 26 February)

Event Time Altitude Azimuth Distance (km) Brightness Sun altitude
Rises 18:23:54 0° 267° (W) 2,377 1.9 -13.0°
Reaches altitude 10° 18:26:02 10° 273° (W) 1,511 0.4 -13.4°
Maximum altitude 18:29:21 50° 350° (N) 549 -3.2 -13.9°
Enters shadow 18:30:57 26° 54° (NE) 874 -2.7 -14.2°
